Flag for Brazil Weather past 2 weeks in Santos, São Paulo, Brazil

Now
57 °F

Overcast.


Feels Like: 56 °F
Forecast: 61 / 73 °F
Wind: 7 mph from East

Location: Sao Paulo Airport

Current Time: Aug 30, 2014 at 7:45:45 AM

Latest Report: Aug 30, 2014 at 7:00 AM


Visibility: N/A

Pressure: 30.21 "Hg

Humidity: 82%

Dew point: 52 °F

Location of SantosLocation

Historic Weather in Santos — Graph

°F

Santos temperature yesterday

Maximum temperature yesterday: 63 °F (at 12:00 PM)
Minimum temperature yesterday: 54 °F (at 12:00 AM)
Average temperature yesterday: 57 °F

Past Weeks' High & Low Weather Summary

 TemperatureHumidityPressure
High88 °F (Aug 25, 4:00 PM)88% (Aug 16, 5:00 PM)30.42 "Hg (Aug 16, 5:00 PM)
Low52 °F (Aug 28, 12:00 AM)13% (Aug 24, 3:00 PM)29.98 "Hg (Aug 25, 2:00 PM)
Average65 °F61%30.19 "Hg
* Reported Aug 15 6:00 AM — Aug 30 6:00 AM, Santos, Weather by CustomWeather, © 2014

Note: Actual official high and low records may vary slightly from our data, if they occured in-between our weather recording intervals... More about our weather records

Advertising

Santos weather history for previous 24 hours

 ConditionsComfort  
Time TempWeatherWind HumidityBarometerVisibility
6:00 AM
Aug 30
57 °FOvercast.6 mph82%30.18 "HgN/A
5:00 AM57 °FOvercast.5 mph77%30.18 "HgN/A
4:00 AM57 °FOvercast.5 mph77%30.15 "HgN/A
3:00 AM57 °FOvercast.6 mph77%30.18 "HgN/A
2:00 AM55 °FOvercast.5 mph82%30.18 "HgN/A
1:00 AM57 °FOvercast.6 mph77%30.21 "HgN/A
12:00 AM57 °FMostly cloudy.6 mph77%30.24 "HgN/A
11:00 PM
Aug 29
57 °FMostly cloudy.7 mph77%30.24 "HgN/A
10:00 PM55 °FPassing clouds.8 mph82%30.24 "HgN/A
9:00 PM55 °FPassing clouds.8 mph82%30.24 "Hg6 mi
8:00 PM55 °FPassing clouds.10 mph82%30.24 "HgN/A
7:00 PM55 °FFog.12 mph82%30.21 "Hg3 mi
6:00 PM57 °FMostly cloudy.10 mph77%30.21 "Hg6 mi
4:00 PM59 °FBroken clouds.12 mph72%30.18 "HgN/A
3:00 PM61 °FMostly cloudy.12 mph68%30.18 "HgN/A
2:00 PM61 °FMostly cloudy.9 mph68%30.18 "HgN/A
1:00 PM61 °FBroken clouds.14 mph68%30.21 "HgN/A
12:00 PM63 °FOvercast.10 mph64%30.24 "HgN/A
11:00 AM61 °FBroken clouds.9 mph63%30.24 "HgN/A
10:00 AM57 °FMore clouds than sun.9 mph72%30.27 "HgN/A
9:00 AM57 °FOvercast.7 mph72%30.27 "HgN/A
8:00 AM57 °FPartly sunny.9 mph72%30.21 "HgN/A
7:00 AM55 °FPartly sunny.9 mph72%30.18 "HgN/A
Weather by CustomWeather, © 2014

See weather overviewHow to use our weather pages